Change the Weather History Date:

Thursday, April 24, 2014

  Actual Average Record
Temperature  
Mean Temperature 68 °F -  
Max Temperature 81 °F 77 °F 89 °F (1999)
Min Temperature 57 °F 60 °F 46 °F (2012)
Cooling Degree Days 4    
Growing Degree Days 18 (Base 50)    
Moisture  
Dew Point 60 °F    
Average Humidity 83    
Maximum Humidity 94    
Minimum Humidity 54    
Precipitation  
Precipitation 0.00 in - - ()
Sea Level Pressure  
Sea Level Pressure 29.92 in    
Wind  
Wind Speed 1 mph (South)    
Max Wind Speed 15 mph    
Max Gust Speed -    
Visibility 4 miles    
Events Fog    
Averages and records for this station are not official NWS values.
T = Trace of Precipitation, MM = Missing Value Source: NWS Daily Summary

Daily Weather History Graph

Daily Weather History Graph

Search for Another Location

Airport or City:

Trip Planner

Search our weather history database for the weather conditions in past years. The results will help you decide how hot, cold, wet, or windy it might be!

Date:

Astronomy

Apr. 24, 2014 Rise Set
Actual Time 6:24 AM CDT 7:32 PM CDT
Civil Twilight 5:59 AM CDT 7:57 PM CDT
Nautical Twilight 5:29 AM CDT 8:27 PM CDT
Astronomical Twilight 4:59 AM CDT 8:58 PM CDT
Moon 3:12 AM CDT (4/24) 3:09 PM CDT (4/24)
Length of Visible Light 13h 58m
Length of Day
13h 08m
Waning Crescent, 24% of the Moon is Illuminated
Apr 24
Waning Crescent
Apr 29
New
May 6
First Quarter
May 14
Full
May 21
Last Quarter

Hourly Weather History & Observations

Time (CDT) Temp. Heat Index Dew Point Humidity Pressure Visibility Wind Dir Wind Speed Gust Speed Precip Events Conditions
12:28 AM 62.6 °F - 59.0 °F 88% 29.92 in 1.5 mi Calm Calm - N/A   Clear
12:41 AM 62.6 °F - 60.8 °F 94% 29.92 in 3.0 mi Calm Calm - N/A   Clear
12:55 AM 63.0 °F - 60.1 °F 90% 29.91 in 6.0 mi Calm Calm - N/A   Clear
1:54 AM 62.1 °F - 59.0 °F 90% 29.92 in 1.2 mi Calm Calm - N/A   Clear
2:02 AM 62.6 °F - 59.0 °F 88% 29.92 in 0.5 mi Calm Calm - N/A Fog Fog
2:08 AM 62.6 °F - 57.2 °F 82% 29.92 in 2.0 mi Calm Calm - N/A   Clear
2:15 AM 62.6 °F - 57.2 °F 82% 29.92 in 6.0 mi Calm Calm - N/A   Clear
2:34 AM 60.8 °F - 57.2 °F 88% 29.91 in 1.8 mi Calm Calm - N/A   Clear
2:48 AM 62.6 °F - 59.0 °F 88% 29.91 in 3.0 mi Calm Calm - N/A   Clear
2:53 AM 60.8 °F - 57.2 °F 88% 29.91 in 1.8 mi Calm Calm - N/A   Clear
2:55 AM 61.0 °F - 57.9 °F 90% 29.91 in 1.0 mi Calm Calm - N/A   Clear
3:00 AM 62.6 °F - 59.0 °F 88% 29.91 in 0.5 mi Calm Calm - N/A Fog Fog
3:32 AM 60.8 °F - 57.2 °F 88% 29.91 in 2.0 mi Calm Calm - N/A   Clear
3:40 AM 60.8 °F - 57.2 °F 88% 29.91 in 3.0 mi Calm Calm - N/A   Clear
3:48 AM 60.8 °F - 57.2 °F 88% 29.90 in 1.8 mi Calm Calm - N/A   Clear
3:50 AM 60.8 °F - 57.2 °F 88% 29.90 in 0.8 mi Calm Calm - N/A   Mist
3:55 AM 60.1 °F - 57.0 °F 90% 29.90 in 0.5 mi Calm Calm - N/A Fog Fog
4:02 AM 60.8 °F - 57.2 °F 88% 29.91 in 2.5 mi Calm Calm - N/A   Partly Cloudy
4:09 AM 60.8 °F - 57.2 °F 88% 29.91 in 3.0 mi Calm Calm - N/A   Partly Cloudy
4:12 AM 60.8 °F - 57.2 °F 88% 29.91 in 0.8 mi Calm Calm - N/A   Mist
4:25 AM 60.8 °F - 57.2 °F 88% 29.91 in 0.5 mi Calm Calm - N/A Fog Fog
4:31 AM 60.8 °F - 57.2 °F 88% 29.91 in 1.0 mi Calm Calm - N/A   Mist
4:35 AM 60.8 °F - 57.2 °F 88% 29.91 in 2.5 mi Calm Calm - N/A   Partly Cloudy
4:47 AM 57.2 °F - 55.4 °F 94% 29.91 in 1.0 mi Calm Calm - N/A   Mist
4:55 AM 57.9 °F - 55.9 °F 93% 29.91 in 0.2 mi Calm Calm - N/A Fog Fog
5:17 AM 57.2 °F - 55.4 °F 94% 29.91 in 2.5 mi Calm Calm - N/A   Overcast
5:19 AM 57.2 °F - 55.4 °F 94% 29.91 in 3.0 mi Calm Calm - N/A   Overcast
5:30 AM 59.0 °F - 57.2 °F 94% 29.91 in 2.5 mi Calm Calm - N/A   Overcast
5:42 AM 59.0 °F - 57.2 °F 94% 29.91 in 1.5 mi Calm Calm - N/A   Scattered Clouds
5:48 AM 59.0 °F - 55.4 °F 88% 29.91 in 2.5 mi Calm Calm - N/A   Scattered Clouds
5:55 AM 57.9 °F - 55.9 °F 93% 29.91 in 0.5 mi Calm Calm - N/A Fog Fog
6:02 AM 57.2 °F - 55.4 °F 94% 29.92 in 0.2 mi Calm Calm - N/A Fog Fog
6:14 AM 59.0 °F - 55.4 °F 88% 29.92 in 0.5 mi Calm Calm - N/A Fog Fog
6:55 AM 59.0 °F - 57.0 °F 93% 29.94 in 0.5 mi Calm Calm - N/A Fog Fog
7:23 AM 62.6 °F - 60.8 °F 94% 29.94 in 0.8 mi Calm Calm - N/A   Mostly Cloudy
7:49 AM 66.2 °F - 62.6 °F 88% 29.95 in 2.5 mi Calm Calm - N/A   Mostly Cloudy
7:55 AM 66.0 °F - 63.0 °F 90% 29.95 in 2.5 mi Calm Calm - N/A   Mostly Cloudy
8:03 AM 66.2 °F - 64.4 °F 94% 29.95 in 3.0 mi Calm Calm - N/A   Mostly Cloudy
8:55 AM 73.0 °F - 64.9 °F 76% 29.97 in 4.0 mi Variable 3.5 mph - N/A   Haze
9:19 AM 73.4 °F - 64.4 °F 73% 29.98 in 6.0 mi South 4.6 mph - N/A   Haze
9:45 AM 75.2 °F - 62.6 °F 65% 29.99 in 7.0 mi SSE 6.9 mph - N/A   Mostly Cloudy
9:55 AM 75.9 °F - 63.0 °F 64% 29.99 in 7.0 mi SSE 4.6 mph - N/A   Mostly Cloudy
10:55 AM 78.1 °F - 62.1 °F 58% 29.99 in 10.0 mi South 4.6 mph - N/A   Scattered Clouds
11:55 AM 80.1 °F 81.5 °F 63.0 °F 56% 29.98 in 10.0 mi SSW 9.2 mph - N/A   Mostly Cloudy
12:55 PM 80.1 °F 81.2 °F 62.1 °F 54% 29.96 in 10.0 mi South 9.2 mph - N/A   Mostly Cloudy
1:55 PM 79.0 °F - 64.0 °F 60% 29.94 in 10.0 mi South 10.4 mph - N/A   Mostly Cloudy
2:55 PM 79.0 °F - 64.9 °F 62% 29.94 in 10.0 mi South 12.7 mph - N/A   Mostly Cloudy
3:55 PM 79.0 °F - 66.0 °F 64% 29.93 in 10.0 mi South 12.7 mph - N/A   Mostly Cloudy
4:55 PM 77.0 °F - 64.9 °F 66% 29.90 in 10.0 mi South 12.7 mph - N/A   Mostly Cloudy
5:55 PM 77.0 °F - 64.0 °F 64% 29.87 in 10.0 mi South 15.0 mph - N/A   Mostly Cloudy
6:55 PM 75.0 °F - 64.9 °F 71% 29.90 in 10.0 mi SSW 12.7 mph - N/A   Mostly Cloudy
7:55 PM 73.0 °F - 64.9 °F 76% 29.91 in 10.0 mi SSW 5.8 mph - N/A   Mostly Cloudy
8:55 PM 69.1 °F - 64.0 °F 84% 29.91 in 10.0 mi SW 4.6 mph - N/A   Mostly Cloudy
9:55 PM 70.0 °F - 64.0 °F 81% 29.93 in 10.0 mi SSW 6.9 mph - N/A   Mostly Cloudy
10:55 PM 70.0 °F - 64.9 °F 84% 29.93 in 10.0 mi SW 5.8 mph - N/A   Mostly Cloudy
11:55 PM 69.1 °F - 64.9 °F 87% 29.94 in 10.0 mi SSW 3.5 mph - N/A   Clear